Weather History for Gwinner, ND

Change the Weather History Date:

Wednesday, December 12, 2012

  Actual Average (KP67) Record (KP67)
Temperature  
Mean Temperature 22 °F -  
Max Temperature 32 °F 24 °F 34 °F (1997)
Min Temperature 12 °F 11 °F 10 °F (1996)
Degree Days  
Heating Degree Days 43    
Moisture  
Dew Point 16 °F    
Average Humidity 83    
Maximum Humidity 93    
Minimum Humidity 69    
Precipitation  
Precipitation 0.00 in - - ()
Sea Level Pressure  
Sea Level Pressure 29.77 in    
Wind  
Wind Speed 13 mph (East)    
Max Wind Speed 20 mph    
Max Gust Speed 25 mph    
Visibility 7 miles    
Events      
Averages and records for this station are not official NWS values.
T = Trace of Precipitation, MM = Missing Value Source: NWS Daily Summary

Daily Weather History Graph

Daily Weather History Graph

Search for Another Location

Airport:

Trip Planner

Search our weather history database for the weather conditions in past years. The results will help you decide how hot, cold, wet, or windy it might be!

Date:

Astronomy

Dec. 12, 2012 Rise Set
Actual Time 8:04 AM CST 4:44 PM CST
Civil Twilight 7:29 AM CST 5:19 PM CST
Nautical Twilight 6:51 AM CST 5:57 PM CST
Astronomical Twilight 6:15 AM CST 6:33 PM CST
Moon 7:09 AM CST (12/12) 4:23 PM CST (12/12)
Length of Visible Light 9h 49m
Length of Day
8h 39m
Waning Crescent, 1% of the Moon is Illuminated
Dec 12
Waning Crescent
Dec 13
New
Dec 19
First Quarter
Dec 28
Full
Jan 4
Last Quarter

Hourly Weather History & Observations

Time (CST) Temp. Windchill Dew Point Humidity Pressure Visibility Wind Dir Wind Speed Gust Speed Precip Events Conditions
12:15 AM 15.8 °F 0.9 °F 12.2 °F 86% 29.79 in 5.0 mi ESE 15.0 mph - 0.00 in   Mostly Cloudy
12:35 AM 15.8 °F -0.6 °F 12.2 °F 86% 29.79 in 5.0 mi ESE 18.4 mph - 0.00 in   Overcast
12:55 AM 15.8 °F -0.6 °F 12.2 °F 86% 29.77 in 5.0 mi ESE 18.4 mph 23.0 mph 0.00 in   Overcast
1:15 AM 14.0 °F -2.0 °F 12.2 °F 93% 29.77 in 5.0 mi ESE 16.1 mph 23.0 mph 0.00 in   Mostly Cloudy
1:35 AM 15.8 °F -0.6 °F 12.2 °F 86% 29.76 in 5.0 mi ESE 18.4 mph - 0.00 in   Partly Cloudy
1:55 AM 15.8 °F -0.6 °F 12.2 °F 86% 29.75 in 5.0 mi ESE 18.4 mph - 0.00 in   Mostly Cloudy
2:15 AM 15.8 °F -1.1 °F 12.2 °F 86% 29.73 in 5.0 mi ESE 19.6 mph 25.3 mph 0.00 in   Overcast
2:35 AM 15.8 °F -0.6 °F 12.2 °F 86% 29.73 in 5.0 mi ESE 18.4 mph - 0.00 in   Overcast
2:55 AM 15.8 °F -0.6 °F 12.2 °F 86% 29.73 in 4.0 mi ESE 18.4 mph 23.0 mph 0.00 in   Overcast
3:15 AM 15.8 °F -1.1 °F 12.2 °F 86% 29.72 in 3.0 mi ESE 19.6 mph 25.3 mph 0.00 in   Overcast
3:35 AM 14.0 °F -2.0 °F 10.4 °F 86% 29.72 in 4.0 mi ESE 16.1 mph - 0.00 in   Overcast
3:55 AM 14.0 °F -3.0 °F 10.4 °F 86% 29.70 in 5.0 mi ESE 18.4 mph - 0.00 in   Overcast
4:15 AM 14.0 °F -2.5 °F 10.4 °F 86% 29.69 in 6.0 mi SE 17.3 mph - 0.00 in   Overcast
4:35 AM 14.0 °F -3.0 °F 12.2 °F 93% 29.68 in 6.0 mi SE 18.4 mph - 0.00 in   Overcast
4:55 AM 15.8 °F -0.2 °F 12.2 °F 86% 29.67 in 8.0 mi SE 17.3 mph - 0.00 in   Overcast
5:15 AM 14.0 °F -2.0 °F 12.2 °F 93% 29.67 in 8.0 mi SE 16.1 mph 19.6 mph 0.00 in   Overcast
5:35 AM 14.0 °F -1.4 °F 12.2 °F 93% 29.67 in 8.0 mi SE 15.0 mph - 0.00 in   Mostly Cloudy
5:55 AM 15.8 °F 1.4 °F 12.2 °F 86% 29.67 in 9.0 mi SE 13.8 mph - 0.00 in   Overcast
6:15 AM 15.8 °F 2.1 °F 12.2 °F 86% 29.68 in 8.0 mi SE 12.7 mph - 0.00 in   Overcast
6:35 AM 15.8 °F 4.2 °F 12.2 °F 86% 29.69 in 8.0 mi SSE 9.2 mph - 0.00 in   Mostly Cloudy
6:55 AM 14.0 °F 2.0 °F 10.4 °F 86% 29.69 in 8.0 mi SE 9.2 mph - 0.00 in   Partly Cloudy
7:15 AM 14.0 °F 3.9 °F 10.4 °F 86% 29.68 in 7.0 mi SE 6.9 mph - 0.00 in   Partly Cloudy
7:35 AM 14.0 °F - 10.4 °F 86% 29.69 in 7.0 mi Calm Calm - 0.00 in   Partly Cloudy
7:55 AM 12.2 °F 4.3 °F 8.6 °F 85% 29.68 in 5.0 mi ESE 4.6 mph - 0.00 in   Clear
8:15 AM 12.2 °F 4.3 °F 8.6 °F 85% 29.69 in 4.0 mi East 4.6 mph - 0.00 in   Clear
8:35 AM 12.2 °F 4.3 °F 8.6 °F 85% 29.69 in 4.0 mi ESE 4.6 mph - 0.00 in   Clear
8:55 AM 12.2 °F - 8.6 °F 85% 29.70 in 4.0 mi Calm Calm - 0.00 in   Clear
9:15 AM 12.2 °F - 8.6 °F 85% 29.71 in 4.0 mi Calm Calm - 0.00 in   Clear
9:35 AM 14.0 °F - 10.4 °F 86% 29.71 in 5.0 mi Calm Calm - 0.00 in   Clear
9:55 AM 17.6 °F - 12.2 °F 79% 29.70 in 5.0 mi Calm Calm - 0.00 in   Clear
10:15 AM 17.6 °F - 12.2 °F 79% 29.72 in 5.0 mi Calm Calm - 0.00 in   Mostly Cloudy
10:35 AM 21.2 °F 13.6 °F 14.0 °F 74% 29.72 in 7.0 mi South 5.8 mph - 0.00 in   Scattered Clouds
11:15 AM 24.8 °F 14.6 °F 17.6 °F 74% 29.73 in 10.0 mi SW 10.4 mph - 0.00 in   Clear
11:35 AM 26.6 °F 16.8 °F 19.4 °F 74% 29.73 in 10.0 mi SW 10.4 mph - 0.00 in   Clear
11:55 AM 26.6 °F 17.5 °F 19.4 °F 74% 29.73 in 10.0 mi SW 9.2 mph - 0.00 in   Clear
12:15 PM 28.4 °F 19.1 °F 21.2 °F 74% 29.72 in 10.0 mi WSW 10.4 mph - 0.00 in   Clear
12:35 PM 28.4 °F 19.7 °F 21.2 °F 74% 29.72 in 10.0 mi SW 9.2 mph - 0.00 in   Clear
12:55 PM 28.4 °F 21.2 °F 23.0 °F 80% 29.73 in 10.0 mi WSW 6.9 mph - 0.00 in   Clear
1:15 PM 30.2 °F 24.3 °F 23.0 °F 75% 29.73 in 10.0 mi WSW 5.8 mph - 0.00 in   Clear
1:35 PM 32.0 °F 26.4 °F 23.0 °F 69% 29.73 in 10.0 mi WSW 5.8 mph - 0.00 in   Clear
1:55 PM 32.0 °F 24.8 °F 23.0 °F 69% 29.73 in 10.0 mi SW 8.1 mph - 0.00 in   Clear
2:15 PM 32.0 °F 25.6 °F 23.0 °F 69% 29.74 in 10.0 mi SW 6.9 mph - 0.00 in   Clear
2:35 PM 32.0 °F 28.7 °F 24.8 °F 75% 29.74 in 10.0 mi West 3.5 mph - 0.00 in   Clear
2:55 PM 32.0 °F - 26.6 °F 80% 29.75 in 10.0 mi Calm Calm - 0.00 in   Clear
3:15 PM 32.0 °F - 26.6 °F 80% 29.75 in 10.0 mi Calm Calm - 0.00 in   Clear
3:35 PM 32.0 °F - 24.8 °F 75% 29.76 in 10.0 mi Calm Calm - 0.00 in   Clear
3:55 PM 32.0 °F 26.4 °F 24.8 °F 75% 29.77 in 10.0 mi North 5.8 mph - 0.00 in   Clear
4:15 PM 32.0 °F 26.4 °F 24.8 °F 75% 29.78 in 10.0 mi North 5.8 mph - 0.00 in   Clear
4:35 PM 30.2 °F 23.4 °F 24.8 °F 80% 29.79 in 10.0 mi North 6.9 mph - 0.00 in   Clear
4:55 PM 30.2 °F 24.3 °F 24.8 °F 80% 29.80 in 10.0 mi NE 5.8 mph - 0.00 in   Clear
5:15 PM 28.4 °F 22.2 °F 24.8 °F 86% 29.81 in 10.0 mi ENE 5.8 mph - 0.00 in   Partly Cloudy
5:35 PM 28.4 °F 19.7 °F 23.0 °F 80% 29.83 in 10.0 mi NNE 9.2 mph - 0.00 in   Partly Cloudy
6:15 PM 26.6 °F 17.5 °F 21.2 °F 80% 29.84 in 9.0 mi NNE 9.2 mph - 0.00 in   Partly Cloudy
6:35 PM 26.6 °F 16.2 °F 21.2 °F 80% 29.86 in 8.0 mi NNE 11.5 mph - 0.00 in   Partly Cloudy
6:55 PM 24.8 °F 14.0 °F 19.4 °F 80% 29.87 in 8.0 mi NE 11.5 mph - 0.00 in   Scattered Clouds
7:15 PM 24.8 °F 14.0 °F 19.4 °F 80% 29.88 in 7.0 mi NNE 11.5 mph - 0.00 in   Partly Cloudy
7:35 PM 23.0 °F 11.1 °F 19.4 °F 86% 29.89 in 7.0 mi NNE 12.7 mph - 0.00 in   Clear
7:55 PM 23.0 °F 11.1 °F 19.4 °F 86% 29.89 in 4.0 mi NNE 12.7 mph - 0.00 in   Clear
8:15 PM 21.2 °F 8.3 °F 19.4 °F 93% 29.89 in 3.0 mi NNE 13.8 mph - 0.00 in   Clear
8:35 PM 21.2 °F 7.8 °F 17.6 °F 86% 29.90 in 5.0 mi North 15.0 mph - 0.00 in   Clear
8:55 PM 19.4 °F 4.5 °F 17.6 °F 93% 29.89 in 7.0 mi North 17.3 mph - 0.00 in   Clear
9:35 PM 19.4 °F 5.0 °F 15.8 °F 86% 29.90 in 7.0 mi NNE 16.1 mph - 0.00 in   Overcast
9:55 PM 19.4 °F 5.5 °F 15.8 °F 86% 29.90 in 7.0 mi NNE 15.0 mph - 0.00 in   Overcast
10:15 PM 19.4 °F 7.2 °F 15.8 °F 86% 29.89 in 5.0 mi NNE 11.5 mph - 0.00 in   Overcast
10:35 PM 17.6 °F 2.2 °F 14.0 °F 86% 29.90 in 7.0 mi NNE 17.3 mph - 0.00 in   Overcast
10:55 PM 17.6 °F 2.7 °F 14.0 °F 86% 29.90 in 8.0 mi NNE 16.1 mph - 0.00 in   Overcast
11:15 PM 17.6 °F 3.7 °F 14.0 °F 86% 29.91 in 8.0 mi NNE 13.8 mph - 0.00 in   Overcast
11:35 PM 17.6 °F 2.7 °F 14.0 °F 86% 29.90 in 7.0 mi NNE 16.1 mph - 0.00 in   Mostly Cloudy
11:55 PM 17.6 °F 2.2 °F 12.2 °F 79% 29.91 in 8.0 mi NNE 17.3 mph - 0.00 in   Mostly Cloudy